Beaufort MCAS, SC

10:22 PM EDT on July 21, 2017 (GMT -0400)
Beaufort Marine Corps Air Station

Weather History for KNBC - February, 2012

Change the Weather History Date:

Sunday, February 12, 2012

  Actual Average Record
Temperature  
Mean Temperature 36 °F -  
Max Temperature 46 °F 61 °F 81 °F (2017)
Min Temperature 27 °F 39 °F 32 °F (2014)
Degree Days  
Heating Degree Days 28    
Moisture  
Dew Point 9 °F    
Average Humidity 36    
Maximum Humidity 56    
Minimum Humidity 20    
Precipitation  
Precipitation 0.00 in - - ()
Sea Level Pressure  
Sea Level Pressure 30.29 in    
Wind  
Wind Speed 12 mph (West)    
Max Wind Speed 17 mph    
Max Gust Speed 23 mph    
Visibility 10 miles    
Events      
Averages and records for this station are not official NWS values.
T = Trace of Precipitation, MM = Missing Value Source: NWS Daily Summary

Daily Weather History Graph

Daily Weather History Graph

Search for Another Location

Airport or City:

Trip Planner

Search our weather history database for the weather conditions in past years. The results will help you decide how hot, cold, wet, or windy it might be!

Date:

Astronomy

Feb. 12, 2012 Rise Set
Actual Time 7:08 AM EST 6:05 PM EST
Civil Twilight 6:43 AM EST 6:30 PM EST
Nautical Twilight 6:14 AM EST 6:59 PM EST
Astronomical Twilight 5:46 AM EST 7:28 PM EST
Moon 11:36 PM EST (2/12) 9:49 AM EST (2/12)
Length of Visible Light 11h 47m
Length of Day
10h 56m
Waning Gibbous, 72% of the Moon is Illuminated
Feb 12
Waning Gibbous
Feb 14
Last Quarter
Feb 21
New
Feb 29
First Quarter
Mar 8
Full

Hourly Weather History & Observations

Time (EST) Temp. Windchill Dew Point Humidity Pressure Visibility Wind Dir Wind Speed Gust Speed Precip Events Conditions
12:56 AM 32.0 °F 21.6 °F 6.1 °F 34% 30.21 in 10.0 mi WNW 15.0 mph - N/A   Clear
1:56 AM 30.0 °F 18.7 °F 7.0 °F 38% 30.22 in 10.0 mi West 16.1 mph - N/A   Clear
2:56 AM 30.0 °F 18.3 °F 7.0 °F 38% 30.23 in 10.0 mi West 17.3 mph 23.0 mph N/A   Clear
3:56 AM 28.9 °F 18.2 °F 7.0 °F 40% 30.25 in 10.0 mi West 13.8 mph - N/A   Clear
4:56 AM 28.0 °F 18.1 °F 6.1 °F 39% 30.27 in 10.0 mi West 11.5 mph - N/A   Clear
5:56 AM 27.0 °F 18.0 °F 7.0 °F 43% 30.29 in 10.0 mi West 9.2 mph - N/A   Clear
6:56 AM 27.0 °F 16.7 °F 9.0 °F 47% 30.30 in 10.0 mi WNW 11.5 mph - N/A   Clear
7:56 AM 27.0 °F 18.7 °F 8.1 °F 45% 30.33 in 10.0 mi West 8.1 mph - N/A   Clear
8:56 AM 30.0 °F 20.0 °F 8.1 °F 40% 30.37 in 10.0 mi West 12.7 mph - N/A   Clear
9:56 AM 33.1 °F 23.4 °F 7.0 °F 34% 30.36 in 10.0 mi West 13.8 mph - N/A   Clear
10:56 AM 36.0 °F 27.1 °F 6.1 °F 29% 30.36 in 10.0 mi West 13.8 mph - N/A   Clear
11:56 AM 39.0 °F 32.3 °F 3.9 °F 23% 30.34 in 10.0 mi WNW 10.4 mph - N/A   Clear
12:56 PM 43.0 °F 36.4 °F 6.1 °F 22% 30.31 in 10.0 mi WNW 12.7 mph - N/A   Clear
1:56 PM 44.1 °F 40.1 °F 5.0 °F 20% 30.28 in 10.0 mi Variable 6.9 mph 17.3 mph N/A   Clear
2:56 PM 46.0 °F 39.6 °F 6.1 °F 20% 30.27 in 10.0 mi WNW 15.0 mph 19.6 mph N/A   Clear
3:56 PM 46.0 °F 41.4 °F 7.0 °F 20% 30.27 in 10.0 mi West 9.2 mph - N/A   Clear
4:56 PM 46.0 °F 41.4 °F 7.0 °F 20% 30.27 in 10.0 mi West 9.2 mph - N/A   Clear
5:56 PM 43.0 °F 40.3 °F 8.1 °F 24% 30.28 in 10.0 mi West 4.6 mph - N/A   Clear
6:56 PM 39.9 °F 37.8 °F 12.0 °F 32% 30.30 in 10.0 mi WSW 3.5 mph - N/A   Clear
7:56 PM 35.1 °F 32.2 °F 12.9 °F 40% 30.30 in 10.0 mi SSW 3.5 mph - N/A   Clear
8:56 PM 30.9 °F 26.2 °F 15.1 °F 52% 30.31 in 10.0 mi SW 4.6 mph - N/A   Clear
9:56 PM 30.9 °F 26.2 °F 15.1 °F 52% 30.32 in 10.0 mi SSW 4.6 mph - N/A   Clear
10:56 PM 30.0 °F - 16.0 °F 56% 30.31 in 10.0 mi Calm Calm - N/A   Clear
11:56 PM 28.9 °F 25.2 °F 15.1 °F 56% 30.30 in 10.0 mi West 3.5 mph - N/A   Clear